Terug naar catalogus

USA 366

ActiefMilitairVLEO
NORAD 59826·PAYLOAD·🇺🇸 United States

Gelanceerd May 22, 2024 vanaf Vandenberg Space Force Base

Loading…

Volgende Passages (komende 24 uur)

TLE

VerouderdSource: Mike McCants

Epoch: Aug 25, 2026, 20:20 UTC

1 59826U 24096N   26237.84743998 0.00000000  00000-0  00000-0 0    06
2 59826  70.0170 137.0430 0003000  49.3246 310.6753 14.96713175    05

Volg USA 366 in realtime met AllMySat

Download on the App Store